User: anonymous   Login
Location: Ostrava
(49.8330°N, 18.2830°E)
Time: 06:38:22
(UTC+02:00)
Language:

Cosmos 2221 - Orbit

View from above orbital plane
View from above orbital plane
View from above satellite
View from above satellite

Ground track
Ground track

The orbit data is extracted from the following two-line orbital elements,

1 22236U 92080A   15187.51571597  .00000831  00000-0  90033-4 0  9997
2 22236 082.5076 011.0433 0016507 194.9947 165.0783 14.86969542221536
Epoch (UTC): 06 July 2015 12:22:37
Eccentricity: 0.0016507
inclination: 82.5076°
perigee height: 596 km
apogee height: 619 km
right ascension of ascending node: 11.0433°
argument of perigee: 194.9947°
revolutions per day: 14.86969542
mean anomaly at epoch: 165.0783°
orbit number at epoch: 22153

The dashed part of the orbit path shows where the satellite is in the earth's shadow,  

DLR